RESULTADOS DE LA FECHA: Domingo 16 de Mayo, 2021 C2 | Ver Clase 2 | Ver Clase 3
FINAL C2
Puesto Nro Piloto Marca Vtas Tiempo Dif.
1 10 ALEJO BORGIANI VW TREND 16 24:20.838
2 15 MIGUEL CIAURRO VW TREND 16 24:22.887 2.049
3 12 MAXIMILIANO BESTANI FIESTA KINETIC 16 24:26.998 6.160
4 28 MATEO NUNEZ NISSAN MARCH 16 24:30.951 10.113
5 4 LUCAS TEDESCHI TOYOTA ETIOS 16 24:31.785 10.947
6 23 DAMIAN KIRSTEIN PEUGEOT 208 16 24:33.546 12.708
7 114 PABLO ORTEGA FIAT ARGO 16 24:34.803 13.965
8 2 EMANUEL ABDALA FIESTA KINETIC 16 24:35.775 14.937
9 8 SEBASTIAN PEREZ CHEVROLET ONIX 16 24:37.160 16.322
10 113 CHRISTIAN BODRATO MIONETT TOYOTA ETIOS 16 24:41.462 20.624
11 21 FERNANDO GOMEZ FREDES TOYOTA ETIOS 16 24:41.670 20.832
12 14 IGNACIO PROCACITTO VW TREND 16 24:42.399 21.561
13 55 MARCELO GUEVARA NISSAN MARCH 16 24:44.850 24.012
14 199 JUAN I. TORRES CHEVROLET CORSA 16 24:46.366 25.528
15 30 VALDERREY ALEJANDRO TOYOTA ETIOS 16 24:50.008 29.170
16 84 LUCAS YEROBI FIESTA KINETIC 16 24:53.989 33.151
17 93 JUAN DAMIANI TOYOTA ETIOS 16 24:54.354 33.516
18 48 RICARDO SALE RENAULT CLIO 16 24:55.352 34.514
19 100 MAURO SALVI TOYOTA ETIOS 16 24:56.759 35.921
20 19 LUCIANO GONZALEZ FIESTA KINETIC 16 24:57.429 36.591
21 51 MIGUEL ARGANARAZ TOYOTA ETIOS 16 24:59.430 38.592
22 151 DIEGO CHEVALLEY TOYOTA ETIOS 16 25:05.972 45.134
23 98 ALEX CONCI FIESTA KINETIC 15 23:12.772 1 Vuelta
154 FACUNDO ROTONDO FIESTA KINETIC 11 17:12.486 5 Vueltas
121 NAZARENO BEGUIRISTAIN FIAT ARGO 10 15:37.451 6 Vueltas
3 GERONIMO NUNEZ TOYOTA ETIOS 10 15:38.898 6 Vueltas
9 CHRISTIAN ABDALA TOYOTA ETIOS 9 13:59.145 7 Vueltas
61 FACUNDO BUSTOS VW TREND 8 13:13.471 8 Vueltas
80 JUAN I. CANELA VW TREND 2 3:03.498 14 Vueltas
89 RENZO BLOTTA TOYOTA ETIOS 1 1:39.042 15 Vueltas
116 ALEJANDRO TORRISI NISSAN MARCH

Auto Nro. 75 Excluido mas 6 puestos de clasificación por maniobra peligrosa al Auto Nro. 154.

Auto Nro. 79 Excluido mas 6 puestos de clasificación por maniobra peligrosa al Auto Nro. 98.

Auto Nro. 9 Apercibido por maniobra peligrosa al Auto Nro. 114.

Auto Nro. 23 Apercibido por maniobra peligrosa al Auto Nro. 28.

Auto Nro. 80 Apercibido por maniobra peligrosa al los Autos Nro. 12 y 21.

Descargas
Título Archivo Descarga
221-953-final-clase-2-2.xls
SERIES
PRIMERA SERIE C2
Puesto Nro Piloto Marca Vtas Tiempo Dif.
1 114 PABLO ORTEGA FIAT ARGO 6 8:56.339
2 84 LUCAS YEROBI FIESTA KINETIC 6 9:02.949 6.610
3 15 MIGUEL CIAURRO VW TREND 6 9:03.765 7.426
4 23 DAMIAN KIRSTEIN PEUGEOT 208 6 9:04.204 7.865
5 79 MARCO VERONESI TOYOTA ETIOS 6 9:04.791 8.452
6 93 JUAN DAMIANI TOYOTA ETIOS 6 9:05.757 9.418
7 116 ALEJANDRO TORRISI NISSAN MARCH 6 9:07.727 11.388
8 151 DIEGO CHEVALLEY TOYOTA ETIOS 6 9:11.499 15.160
9 48 RICARDO SALE RENAULT CLIO 6 9:13.645 17.306
10 100 MAURO SALVI TOYOTA ETIOS 5 7:31.675 1 Vuelta
89 RENZO BLOTTA TOYOTA ETIOS 4 5:57.424 2 Vueltas
Descargas
Título Archivo Descarga
221-420-1-serie-clase-2.xls
SEGUNDA SERIE C2
Puesto Nro Piloto Marca Vtas Tiempo Dif.
1 9 CHRISTIAN ABDALA TOYOTA ETIOS 6 8:58.589
2 12 MAXIMILIANO BESTANI FIESTA KINETIC 6 9:02.487 3.898
3 80 JUAN I. CANELA VW TREND 6 9:04.880 6.291
4 61 FACUNDO BUSTOS VW TREND 6 9:05.584 6.995
5 28 MATEO NUNEZ NISSAN MARCH 6 9:06.299 7.710
6 2 EMANUEL ABDALA FIESTA KINETIC 6 9:06.300 7.711
7 19 LUCIANO GONZALEZ FIESTA KINETIC 6 9:06.672 8.083
8 98 ALEX CONCI FIESTA KINETIC 6 9:11.008 12.419
9 30 VALDERREY ALEJANDRO TOYOTA ETIOS 6 9:13.514 14.925
10 75 JOSE LUIS ARRATE TOYOTA ETIOS 6 9:22.590 24.001
3 GERONIMO NUNEZ TOYOTA ETIOS 1 1:42.393 5 Vueltas

Auto Nro. 98 Recargado con 5 segundos por falsa largada.

Auto Nro. 2 Recargado con puestos por maniobra peligrosa al Auto Nro. 28.

Descargas
Título Archivo Descarga
221-384-2-serie-clase-2.xls
TERCERA SERIE C2
Puesto Nro Piloto Marca Vtas Tiempo Dif.
1 10 ALEJO BORGIANI VW TREND 6 8:57.911
2 21 FERNANDO GOMEZ FREDES TOYOTA ETIOS 6 8:58.393 0.482
3 14 IGNACIO PROCACITTO VW TREND 6 8:58.884 0.973
4 4 LUCAS TEDESCHI TOYOTA ETIOS 6 8:59.679 1.768
5 199 JUAN I. TORRES CHEVROLET CORSA 6 9:00.420 2.509
6 55 MARCELO GUEVARA NISSAN MARCH 6 9:02.503 4.592
7 8 SEBASTIAN PEREZ CHEVROLET ONIX 6 9:04.936 7.025
8 113 CHRISTIAN BODRATO MIONETT TOYOTA ETIOS 6 9:10.506 12.595
9 154 FACUNDO ROTONDO FIESTA KINETIC 6 9:10.634 12.723
10 51 MIGUEL ARGANARAZ TOYOTA ETIOS 6 9:12.846 14.935
11 121 NAZARENO BEGUIRISTAIN FIAT ARGO 6 9:14.669 16.758
Descargas
Título Archivo Descarga
221-104-3-serie-clase-2.xls
CLASIFICACIONES
1° CLASIFICACIÓN C2
Puesto Nro Piloto Marca Vtas Tiempo Dif.
1 9 CHRISTIAN ABDALA TOYOTA ETIOS 4 1:27.741
2 14 IGNACIO PROCACITTO VW TREND 4 1:27.879 0.138
3 84 LUCAS YEROBI FIESTA KINETIC 4 1:27.919 0.178
4 3 GERONIMO NUNEZ TOYOTA ETIOS 5 1:27.944 0.203
5 2 EMANUEL ABDALA FIESTA KINETIC 4 1:28.128 0.387
6 10 ALEJO BORGIANI VW TREND 5 1:28.190 0.449
7 114 PABLO ORTEGA FIAT ARGO 5 1:28.212 0.471
8 4 LUCAS TEDESCHI TOYOTA ETIOS 5 1:28.276 0.535
9 100 MAURO SALVI TOYOTA ETIOS 5 1:28.278 0.537
10 79 MARCO VERONESI TOYOTA ETIOS 5 1:28.300 0.559
11 199 JUAN I. TORRES CHEVROLET CORSA 5 1:28.319 0.578
12 28 MATEO NUNEZ NISSAN MARCH 5 1:28.457 0.716
13 89 RENZO BLOTTA TOYOTA ETIOS 5 1:28.479 0.738
14 21 FERNANDO GOMEZ FREDES TOYOTA ETIOS 5 1:28.492 0.751
15 61 FACUNDO BUSTOS VW TREND 5 1:28.540 0.799
16 15 MIGUEL CIAURRO VW TREND 4 1:28.549 0.808
17 12 MAXIMILIANO BESTANI FIESTA KINETIC 5 1:28.591 0.850
18 80 JUAN I. CANELA VW TREND 5 1:28.675 0.934
19 116 ALEJANDRO TORRISI NISSAN MARCH 5 1:28.758 1.017
20 23 DAMIAN KIRSTEIN PEUGEOT 208 5 1:28.842 1.101
21 75 JOSE LUIS ARRATE TOYOTA ETIOS 5 1:28.922 1.181
22 8 SEBASTIAN PEREZ CHEVROLET ONIX 5 1:29.001 1.260
23 113 CHRISTIAN BODRATO MIONETT TOYOTA ETIOS 5 1:29.036 1.295
24 55 MARCELO GUEVARA NISSAN MARCH 5 1:29.111 1.370
25 19 LUCIANO GONZALEZ FIESTA KINETIC 5 1:29.145 1.404
26 51 MIGUEL ARGANARAZ TOYOTA ETIOS 5 1:29.151 1.410
27 93 JUAN DAMIANI TOYOTA ETIOS 5 1:29.486 1.745
28 30 VALDERREY ALEJANDRO TOYOTA ETIOS 5 1:29.734 1.993
29 154 FACUNDO ROTONDO FIESTA KINETIC 5 1:29.848 2.107
30 151 DIEGO CHEVALLEY TOYOTA ETIOS 5 1:29.902 2.161
31 98 ALEX CONCI FIESTA KINETIC 4 1:29.939 2.198
32 48 RICARDO SALE RENAULT CLIO 5 1:30.061 2.320
33 121 NAZARENO BEGUIRISTAIN FIAT ARGO 5 1:30.362 2.621
Descargas
Título Archivo Descarga
221-796-1-clasificacion-clase-2-1.xls
2° CLASIFICACIÓN C2
Puesto Nro Piloto Marca Vtas Tiempo Dif.
1 114 PABLO ORTEGA FIAT ARGO 4 1:27.695
2 4 LUCAS TEDESCHI TOYOTA ETIOS 5 1:27.782 0.087
3 89 RENZO BLOTTA TOYOTA ETIOS 5 1:27.788 0.093
4 3 GERONIMO NUNEZ TOYOTA ETIOS 5 1:27.789 0.094
5 12 MAXIMILIANO BESTANI FIESTA KINETIC 5 1:28.098 0.403
6 9 CHRISTIAN ABDALA TOYOTA ETIOS 3 1:28.099 0.404
7 21 FERNANDO GOMEZ FREDES TOYOTA ETIOS 4 1:28.102 0.407
8 100 MAURO SALVI TOYOTA ETIOS 3 1:28.122 0.427
9 14 IGNACIO PROCACITTO VW TREND 5 1:28.146 0.451
10 2 EMANUEL ABDALA FIESTA KINETIC 5 1:28.225 0.530
11 84 LUCAS YEROBI FIESTA KINETIC 3 1:28.231 0.536
12 28 MATEO NUNEZ NISSAN MARCH 1 1:28.309 0.614
13 116 ALEJANDRO TORRISI NISSAN MARCH 5 1:28.326 0.631
14 61 FACUNDO BUSTOS VW TREND 5 1:28.482 0.787
15 113 CHRISTIAN BODRATO MIONETT TOYOTA ETIOS 5 1:28.531 0.836
16 10 ALEJO BORGIANI VW TREND 3 1:28.567 0.872
17 199 JUAN I. TORRES CHEVROLET CORSA 3 1:28.674 0.979
18 79 MARCO VERONESI TOYOTA ETIOS 3 1:28.792 1.097
19 55 MARCELO GUEVARA NISSAN MARCH 4 1:28.809 1.114
20 15 MIGUEL CIAURRO VW TREND 5 1:28.831 1.136
21 8 SEBASTIAN PEREZ CHEVROLET ONIX 5 1:28.936 1.241
22 80 JUAN I. CANELA VW TREND 5 1:28.954 1.259
23 93 JUAN DAMIANI TOYOTA ETIOS 5 1:28.958 1.263
24 23 DAMIAN KIRSTEIN PEUGEOT 208 3 1:28.975 1.280
25 75 JOSE LUIS ARRATE TOYOTA ETIOS 5 1:29.217 1.522
26 51 MIGUEL ARGANARAZ TOYOTA ETIOS 5 1:29.465 1.770
27 48 RICARDO SALE RENAULT CLIO 5 1:29.472 1.777
28 98 ALEX CONCI FIESTA KINETIC 3 1:30.111 2.416
29 154 FACUNDO ROTONDO FIESTA KINETIC 5 1:30.364 2.669
30 30 VALDERREY ALEJANDRO TOYOTA ETIOS 5 1:30.450 2.755
31 19 LUCIANO GONZALEZ FIESTA KINETIC 4 1:30.531 2.836
32 121 NAZARENO BEGUIRISTAIN FIAT ARGO 5 1:30.773 3.078
33 151 DIEGO CHEVALLEY TOYOTA ETIOS 3 1:30.857 3.162

Autos Nro. 98 y 121 Retiro de vueltas por no realizar circuito.

Descargas
Título Archivo Descarga
221-701-2-clasificacion-clase-2.xls
GENERAL CLASIFICACIÓN C2
Puesto Nro Piloto Marca Vtas Tiempo Dif.
1 114 PABLO ORTEGA FIAT ARGO 1:27.695
2 9 CHRISTIAN ABDALA TOYOTA ETIOS 1:27.741 0.046
3 4 LUCAS TEDESCHI TOYOTA ETIOS 1:27.782 0.087
4 89 RENZO BLOTTA TOYOTA ETIOS 1:27.788 0.093
5 3 GERONIMO NUNEZ TOYOTA ETIOS 1:27.789 0.094
6 14 IGNACIO PROCACITTO VW TREND 1:27.879 0.184
7 84 LUCAS YEROBI FIESTA KINETIC 1:27.919 0.224
8 12 MAXIMILIANO BESTANI FIESTA KINETIC 1:28.098 0.403
9 21 FERNANDO GOMEZ FREDES TOYOTA ETIOS 1:28.102 0.407
10 100 MAURO SALVI TOYOTA ETIOS 1:28.122 0.427
11 2 EMANUEL ABDALA FIESTA KINETIC 1:28.128 0.433
12 10 ALEJO BORGIANI VW TREND 1:28.190 0.495
13 79 MARCO VERONESI TOYOTA ETIOS 1:28.300 0.605
14 28 MATEO NUNEZ NISSAN MARCH 1:28.309 0.614
15 199 JUAN I. TORRES CHEVROLET CORSA 1:28.319 0.624
16 116 ALEJANDRO TORRISI NISSAN MARCH 1:28.326 0.631
17 61 FACUNDO BUSTOS VW TREND 1:28.482 0.787
18 113 CHRISTIAN BODRATO MIONETT TOYOTA ETIOS 1:28.531 0.836
19 15 MIGUEL CIAURRO VW TREND 1:28.549 0.854
20 80 JUAN I. CANELA VW TREND 1:28.675 0.980
21 55 MARCELO GUEVARA NISSAN MARCH 1:28.809 1.114
22 23 DAMIAN KIRSTEIN PEUGEOT 208 1:28.842 1.147
23 75 JOSE LUIS ARRATE TOYOTA ETIOS 1:28.922 1.227
24 8 SEBASTIAN PEREZ CHEVROLET ONIX 1:28.936 1.241
25 93 JUAN DAMIANI TOYOTA ETIOS 1:28.958 1.263
26 19 LUCIANO GONZALEZ FIESTA KINETIC 1:29.145 1.450
27 51 MIGUEL ARGANARAZ TOYOTA ETIOS 1:29.151 1.456
28 48 RICARDO SALE RENAULT CLIO 1:29.472 1.777
29 30 VALDERREY ALEJANDRO TOYOTA ETIOS 1:29.734 2.039
30 154 FACUNDO ROTONDO FIESTA KINETIC 1:29.848 2.153
31 151 DIEGO CHEVALLEY TOYOTA ETIOS 1:29.902 2.207
32 98 ALEX CONCI FIESTA KINETIC 1:29.939 2.244
33 121 NAZARENO BEGUIRISTAIN FIAT ARGO 1:30.362 2.667
Descargas
ENTRENAMIENTOS
1° ENTRENAMIENTO C2
Puesto Nro Piloto Marca Vtas Tiempo Dif.
1 3 GERONIMO NUNEZ TOYOTA ETIOS 6 1:28.136
2 79 MARCO VERONESI TOYOTA ETIOS 15 1:28.449 0.313
3 28 MATEO NUNEZ NISSAN MARCH 11 1:28.621 0.485
4 100 MAURO SALVI TOYOTA ETIOS 12 1:28.624 0.488
5 84 LUCAS YEROBI FIESTA KINETIC 9 1:28.746 0.610
6 23 DAMIAN KIRSTEIN PEUGEOT 208 16 1:28.772 0.636
7 10 ALEJO BORGIANI VW TREND 12 1:28.847 0.711
8 8 SEBASTIAN PEREZ CHEVROLET ONIX 14 1:28.972 0.836
9 89 RENZO BLOTTA TOYOTA ETIOS 14 1:29.055 0.919
10 4 LUCAS TEDESCHI TOYOTA ETIOS 12 1:29.063 0.927
11 9 CHRISTIAN ABDALA TOYOTA ETIOS 15 1:29.124 0.988
12 113 CHRISTIAN BODRATO MIONETT TOYOTA ETIOS 12 1:29.147 1.011
13 55 MARCELO GUEVARA NISSAN MARCH 15 1:29.206 1.070
14 114 PABLO ORTEGA FIAT ARGO 5 1:29.278 1.142
15 12 MAXIMILIANO BESTANI FIESTA KINETIC 13 1:29.323 1.187
16 2 EMANUEL ABDALA FIESTA KINETIC 13 1:29.326 1.190
17 75 JOSE LUIS ARRATE TOYOTA ETIOS 7 1:29.347 1.211
18 21 FERNANDO GOMEZ FREDES TOYOTA ETIOS 14 1:29.460 1.324
19 14 IGNACIO PROCACITTO VW TREND 10 1:29.545 1.409
20 116 ALEJANDRO TORRISI NISSAN MARCH 14 1:29.547 1.411
21 199 JUAN I. TORRES CHEVROLET CORSA 14 1:29.559 1.423
22 154 FACUNDO ROTONDO FIESTA KINETIC 16 1:29.595 1.459
23 15 MIGUEL CIAURRO VW TREND 12 1:29.596 1.460
24 93 JUAN DAMIANI TOYOTA ETIOS 15 1:29.602 1.466
25 48 RICARDO SALE RENAULT CLIO 15 1:29.672 1.536
26 80 JUAN I. CANELA VW TREND 12 1:29.677 1.541
27 98 ALEX CONCI FIESTA KINETIC 15 1:29.931 1.795
28 61 FACUNDO BUSTOS VW TREND 11 1:29.935 1.799
29 19 LUCIANO GONZALEZ FIESTA KINETIC 13 1:30.075 1.939
30 51 MIGUEL ARGANARAZ TOYOTA ETIOS 12 1:30.213 2.077
31 121 NAZARENO BEGUIRISTAIN FIAT ARGO 16 1:30.863 2.727
32 30 VALDERREY ALEJANDRO TOYOTA ETIOS 11 1:30.943 2.807
33 151 DIEGO CHEVALLEY TOYOTA ETIOS 9 1:31.437 3.301

Auto Nro. 121 Retiro de una vuelta por no realizar circuito.

Auto Nro. 98 retiro de vueltas por no realizar circuito.

1 84 LUCAS YEROBI FIESTA KINETIC 8 1:37.517
2 7 FACUNDO LEANEZ TOYOTA ETIOS 10 1:37.546 0.029
3 36 SANDRO ABDALA NISSAN MARCH 13 1:37.553 0.036
4 116 ALEJANDRO TORRISI NISSAN MARCH 11 1:37.632 0.115
5 114 PABLO ORTEGA FIAT ARGO 11 1:37.772 0.255
6 3 GERONIMO NUEZ TOYOTA ETIOS 11 1:37.775 0.258
7 9 CHRISTIAN ABDALA TOYOTA ETIOS 12 1:37.808 0.291
8 14 IGNACIO PROCACITTO VW TREND 10 1:37.890 0.373
9 113 CHRISTIAN BODRATO MIONETT TOYOTA ETIOS 13 1:37.959 0.442
10 12 MAXIMILIANO BESTANI FIESTA KINETIC 6 1:38.013 0.496
11 4 LUCAS TEDESCHI TOYOTA ETIOS 10 1:38.114 0.597
12 89 RENZO BLOTTA TOYOTA ETIOS 12 1:38.158 0.641
13 100 MAURO SALVI TOYOTA ETIOS 10 1:38.213 0.696
14 79 MARCO VERONESI TOYOTA ETIOS 12 1:38.254 0.737
15 55 MARCELO GUEVARA TOYOTA ETIOS 11 1:38.275 0.758
16 2 EMANUEL ABDALA FIESTA KINETIC 11 1:38.325 0.808
17 16 DIEGO LEANEZ TOYOTA ETIOS 10 1:38.418 0.901
18 28 MATEO NUEZ NISSAN MARCH 10 1:38.445 0.928
19 30 VALDERREY ALEJANDRO TOYOTA ETIOS 12 1:38.581 1.064
20 61 FACUNDO BUSTOS VW TREND 11 1:38.588 1.071
21 98 ALEX CONCI FIESTA KINETIC 10 1:38.890 1.373
22 8 SEBASTIAN PEREZ CHEVROLET ONIX 8 1:39.007 1.490
23 80 JUAN I. CANELA VW TREND 10 1:39.077 1.560
24 10 ALEJO BORGIANI VW TREND 8 1:39.120 1.603
25 15 MIGUEL CIAURRO VW TREND 13 1:39.149 1.632
26 75 JOSE LUIS ARRATE TOYOTA ETIOS 9 1:39.239 1.722
27 37 GABRIEL SCORDIA FIAT ARGO 6 1:39.297 1.780
28 93 JUAN DAMIANI TOYOTA ETIOS 13 1:39.338 1.821
29 121 NAZARENO BEGUIRISTAIN TOYOTA ETIOS 11 1:40.271 2.754
30 26 AGUSTIN BONOMO DS3 3 1:45.644 8.127
Descargas
Título Archivo Descarga
221-441-1-entrenamiento-clase-2.xls
2° ENTRENAMIENTO C2
Puesto Nro Piloto Marca Vtas Tiempo Dif.
1 3 GERONIMO NUNEZ TOYOTA ETIOS 8 1:28.011
2 89 RENZO BLOTTA TOYOTA ETIOS 8 1:28.219 0.208
3 12 MAXIMILIANO BESTANI FIESTA KINETIC 9 1:28.234 0.223
4 79 MARCO VERONESI TOYOTA ETIOS 13 1:28.251 0.240
5 84 LUCAS YEROBI FIESTA KINETIC 8 1:28.310 0.299
6 4 LUCAS TEDESCHI TOYOTA ETIOS 9 1:28.331 0.320
7 21 FERNANDO GOMEZ FREDES TOYOTA ETIOS 13 1:28.427 0.416
8 113 CHRISTIAN BODRATO MIONETT TOYOTA ETIOS 10 1:28.473 0.462
9 10 ALEJO BORGIANI VW TREND 8 1:28.547 0.536
10 14 IGNACIO PROCACITTO VW TREND 13 1:28.597 0.586
11 114 PABLO ORTEGA FIAT ARGO 13 1:28.609 0.598
12 9 CHRISTIAN ABDALA TOYOTA ETIOS 13 1:28.637 0.626
13 28 MATEO NUNEZ NISSAN MARCH 10 1:28.719 0.708
14 100 MAURO SALVI TOYOTA ETIOS 9 1:28.767 0.756
15 116 ALEJANDRO TORRISI NISSAN MARCH 10 1:28.767 0.756
16 15 MIGUEL CIAURRO VW TREND 12 1:28.837 0.826
17 2 EMANUEL ABDALA FIESTA KINETIC 10 1:28.838 0.827
18 23 DAMIAN KIRSTEIN PEUGEOT 208 13 1:28.887 0.876
19 8 SEBASTIAN PEREZ CHEVROLET ONIX 13 1:29.047 1.036
20 93 JUAN DAMIANI TOYOTA ETIOS 12 1:29.064 1.053
21 199 JUAN I. TORRES CHEVROLET CORSA 13 1:29.137 1.126
22 80 JUAN I. CANELA VW TREND 13 1:29.148 1.137
23 75 JOSE LUIS ARRATE TOYOTA ETIOS 11 1:29.206 1.195
24 55 MARCELO GUEVARA NISSAN MARCH 9 1:29.271 1.260
25 61 FACUNDO BUSTOS VW TREND 14 1:29.319 1.308
26 19 LUCIANO GONZALEZ FIESTA KINETIC 14 1:29.323 1.312
27 121 NAZARENO BEGUIRISTAIN FIAT ARGO 11 1:29.523 1.512
28 154 FACUNDO ROTONDO FIESTA KINETIC 15 1:29.758 1.747
29 48 RICARDO SALE RENAULT CLIO 15 1:29.763 1.752
30 51 MIGUEL ARGANARAZ TOYOTA ETIOS 14 1:29.777 1.766
31 98 ALEX CONCI FIESTA KINETIC 14 1:29.814 1.803
32 30 VALDERREY ALEJANDRO TOYOTA ETIOS 11 1:30.025 2.014
33 151 DIEGO CHEVALLEY TOYOTA ETIOS 14 1:30.765 2.754

Auto Nro. 15 Retiro de una vuelta por exceder limite de pista.

Auto Nro. 61 Retiro de vueltas por exceder limite de pista.

Descargas
Título Archivo Descarga
221-49-2-entrenamiento-clase-2.xls
GENERAL ENTRENAMIENTO C2
Puesto Nro Piloto Marca Vtas Tiempo Dif.
1 3 GERONIMO NUNEZ TOYOTA ETIOS 1:28.011
2 89 RENZO BLOTTA TOYOTA ETIOS 1:28.219 0.208
3 12 MAXIMILIANO BESTANI FIESTA KINETIC 1:28.234 0.223
4 79 MARCO VERONESI TOYOTA ETIOS 1:28.251 0.240
5 84 LUCAS YEROBI FIESTA KINETIC 1:28.310 0.299
6 4 LUCAS TEDESCHI TOYOTA ETIOS 1:28.331 0.320
7 21 FERNANDO GOMEZ FREDES TOYOTA ETIOS 1:28.427 0.416
8 113 CHRISTIAN BODRATO MIONETT TOYOTA ETIOS 1:28.473 0.462
9 10 ALEJO BORGIANI VW TREND 1:28.547 0.536
10 14 IGNACIO PROCACITTO VW TREND 1:28.597 0.586
11 114 PABLO ORTEGA FIAT ARGO 1:28.609 0.598
12 28 MATEO NUNEZ NISSAN MARCH 1:28.621 0.610
13 100 MAURO SALVI TOYOTA ETIOS 1:28.624 0.613
14 9 CHRISTIAN ABDALA TOYOTA ETIOS 1:28.637 0.626
15 116 ALEJANDRO TORRISI NISSAN MARCH 1:28.767 0.756
16 23 DAMIAN KIRSTEIN PEUGEOT 208 1:28.772 0.761
17 15 MIGUEL CIAURRO VW TREND 1:28.837 0.826
18 2 EMANUEL ABDALA FIESTA KINETIC 1:28.838 0.827
19 8 SEBASTIAN PEREZ CHEVROLET ONIX 1:28.972 0.961
20 93 JUAN DAMIANI TOYOTA ETIOS 1:29.064 1.053
21 199 JUAN I. TORRES CHEVROLET CORSA 1:29.137 1.126
22 80 JUAN I. CANELA VW TREND 1:29.148 1.137
23 55 MARCELO GUEVARA NISSAN MARCH 1:29.206 1.195
24 75 JOSE LUIS ARRATE TOYOTA ETIOS 1:29.206 1.195
25 61 FACUNDO BUSTOS VW TREND 1:29.319 1.308
26 19 LUCIANO GONZALEZ FIESTA KINETIC 1:29.323 1.312
27 121 NAZARENO BEGUIRISTAIN FIAT ARGO 1:29.523 1.512
28 154 FACUNDO ROTONDO FIESTA KINETIC 1:29.595 1.584
29 48 RICARDO SALE RENAULT CLIO 1:29.672 1.661
30 51 MIGUEL ARGANARAZ TOYOTA ETIOS 1:29.777 1.766
31 98 ALEX CONCI FIESTA KINETIC 1:29.814 1.803
32 30 VALDERREY ALEJANDRO TOYOTA ETIOS 1:30.025 2.014
33 151 DIEGO CHEVALLEY TOYOTA ETIOS 1:30.765 2.754
Descargas